Location: Chefe Valiua
(16.5342°S, 37.2214°E)
Time: 01:54:08
(UTC+00:00)

ARGOS - Pass Details

Date: 19 January 2021
Orbit: 821 x 834 km, 98.4° (Epoch: 07 March)

Event Time Altitude Azimuth Distance (km) Brightness Sun altitude
Rises 17:29:33 0° 174° (S) 3,373 6.6 -18.0°
Reaches altitude 10° 17:31:56 10° 177° (S) 2,433 5.9 -18.5°
Maximum altitude 17:37:14 61° 256° (WSW) 928 3.6 -19.6°
Drops below altitude 10° 17:42:30 10° 336° (NNW) 2,407 5.5 -20.7°
Sets 17:44:51 0° 339° (NNW) 3,334 6.2 -21.2°
